TimeCST,TemperatureF,Dew PointF,Humidity,Sea Level PressureIn,VisibilityMPH,Wind Direction,Wind SpeedMPH,Gust SpeedMPH,PrecipitationIn,Events,Conditions,WindDirDegrees,DateUTC
12:04 AM,19.4,17.6,93,30.11,4.0,Calm,Calm,-,N/A,Snow,Light Snow,0,2012-12-09 06:04:00
12:24 AM,19.4,17.6,93,30.12,4.0,Calm,Calm,-,N/A,Snow,Light Snow,0,2012-12-09 06:24:00
12:44 AM,19.4,17.6,93,30.12,5.0,Calm,Calm,-,N/A,Snow,Light Snow,0,2012-12-09 06:44:00
1:05 AM,19.4,17.6,93,30.12,5.0,Calm,Calm,-,N/A,Snow,Light Snow,0,2012-12-09 07:05:00
1:25 AM,19.4,17.6,93,30.13,1.0,Calm,Calm,-,N/A,Snow,Light Snow,0,2012-12-09 07:25:00
1:44 AM,19.4,17.6,93,30.13,0.8,Calm,Calm,-,N/A,Snow,Light Snow,0,2012-12-09 07:44:00
2:04 AM,19.4,17.6,93,30.14,1.0,North,4.6,-,N/A,Snow,Light Snow,350,2012-12-09 08:04:00
2:25 AM,17.6,15.8,93,30.14,0.8,North,3.5,-,N/A,Snow,Light Snow,350,2012-12-09 08:25:00
2:44 AM,17.6,15.8,93,30.14,0.8,Calm,Calm,-,N/A,Snow,Light Snow,0,2012-12-09 08:44:00
3:04 AM,17.6,15.8,93,30.14,1.2,Calm,Calm,-,N/A,Snow,Light Snow,0,2012-12-09 09:04:00
3:24 AM,17.6,15.8,93,30.14,1.5,North,3.5,-,N/A,Snow,Light Snow,350,2012-12-09 09:24:00
3:44 AM,17.6,15.8,93,30.14,1.0,North,3.5,-,N/A,Snow,Light Snow,360,2012-12-09 09:44:00
4:04 AM,17.6,15.8,93,30.14,1.0,NNW,4.6,-,N/A,Snow,Light Snow,340,2012-12-09 10:04:00
4:24 AM,17.6,15.8,93,30.14,1.2,Calm,Calm,-,0.01,Snow,Light Snow,0,2012-12-09 10:24:00
4:44 AM,17.6,15.8,93,30.14,2.0,North,3.5,-,0.01,Snow,Light Snow,360,2012-12-09 10:44:00
5:04 AM,17.6,15.8,93,30.15,2.5,North,3.5,-,N/A,Snow,Light Snow,360,2012-12-09 11:04:00
5:24 AM,17.6,15.8,93,30.14,2.0,North,3.5,-,N/A,Snow,Light Snow,360,2012-12-09 11:24:00
5:44 AM,17.6,15.8,93,30.15,1.8,North,5.8,-,N/A,Snow,Light Snow,350,2012-12-09 11:44:00
6:04 AM,17.6,15.8,93,30.15,2.0,North,5.8,-,N/A,Snow,Light Snow,350,2012-12-09 12:04:00
6:24 AM,17.6,15.8,93,30.16,2.0,North,4.6,-,N/A,Snow,Light Snow,350,2012-12-09 12:24:00
6:44 AM,17.6,15.8,93,30.16,2.5,North,4.6,-,N/A,Snow,Light Snow,360,2012-12-09 12:44:00
7:04 AM,15.8,14.0,93,30.17,2.0,North,4.6,-,N/A,Snow,Light Snow,350,2012-12-09 13:04:00
7:24 AM,15.8,14.0,93,30.17,1.5,North,4.6,-,N/A,Snow,Light Snow,350,2012-12-09 13:24:00
7:44 AM,15.8,14.0,93,30.17,1.2,North,4.6,-,N/A,Snow,Light Snow,350,2012-12-09 13:44:00
8:04 AM,15.8,14.0,93,30.17,1.5,North,4.6,-,N/A,Snow,Light Snow,350,2012-12-09 14:04:00
8:24 AM,15.8,14.0,93,30.18,1.5,North,5.8,-,N/A,Snow,Light Snow,350,2012-12-09 14:24:00
8:44 AM,15.8,14.0,93,30.19,1.8,North,5.8,-,N/A,Snow,Light Snow,350,2012-12-09 14:44:00
9:04 AM,15.8,14.0,93,30.19,1.2,North,5.8,-,N/A,Snow,Light Snow,350,2012-12-09 15:04:00
9:24 AM,15.8,14.0,93,30.18,2.0,North,5.8,-,N/A,Snow,Light Snow,350,2012-12-09 15:24:00
9:44 AM,15.8,14.0,93,30.19,2.0,North,4.6,-,N/A,Snow,Light Snow,360,2012-12-09 15:44:00
10:04 AM,15.8,14.0,93,30.19,2.5,North,8.1,-,N/A,Snow,Light Snow,350,2012-12-09 16:04:00
10:24 AM,17.6,15.8,93,30.19,4.0,North,5.8,-,N/A,Snow,Light Snow,350,2012-12-09 16:24:00
10:44 AM,17.6,15.8,93,30.19,2.0,North,5.8,-,N/A,Snow,Light Snow,350,2012-12-09 16:44:00
11:04 AM,17.6,15.8,93,30.17,3.0,North,5.8,-,N/A,Snow,Light Snow,350,2012-12-09 17:04:00
11:24 AM,17.6,15.8,93,30.17,10.0,NNW,6.9,-,N/A,Snow,Light Snow,340,2012-12-09 17:24:00
11:44 AM,17.6,14.0,86,30.16,10.0,NNW,6.9,-,N/A,,Overcast,340,2012-12-09 17:44:00
12:04 PM,17.6,14.0,86,30.16,10.0,North,4.6,-,N/A,Snow,Light Snow,350,2012-12-09 18:04:00
12:24 PM,17.6,14.0,86,30.16,10.0,NNW,6.9,-,N/A,Snow,Light Snow,330,2012-12-09 18:24:00
1:04 PM,17.6,14.0,86,30.13,1.5,North,5.8,-,N/A,Snow,Light Snow,10,2012-12-09 19:04:00
1:24 PM,17.6,14.0,86,30.12,4.0,North,4.6,-,N/A,Snow,Light Snow,360,2012-12-09 19:24:00
1:44 PM,17.6,14.0,86,30.12,7.0,North,5.8,-,N/A,Snow,Light Snow,350,2012-12-09 19:44:00
2:04 PM,17.6,14.0,86,30.12,4.0,North,4.6,-,N/A,Snow,Light Snow,360,2012-12-09 20:04:00
2:24 PM,15.8,12.2,86,30.11,3.0,North,6.9,-,N/A,Snow,Light Snow,350,2012-12-09 20:24:00
2:44 PM,15.8,12.2,86,30.11,7.0,North,5.8,-,N/A,Snow,Light Snow,350,2012-12-09 20:44:00
3:04 PM,15.8,12.2,86,30.11,3.0,North,3.5,-,N/A,Snow,Light Snow,350,2012-12-09 21:04:00
3:24 PM,15.8,12.2,86,30.11,5.0,North,5.8,-,N/A,Snow,Light Snow,350,2012-12-09 21:24:00
3:44 PM,14.0,12.2,93,30.11,7.0,North,4.6,-,N/A,Snow,Light Snow,360,2012-12-09 21:44:00
4:04 PM,14.0,10.4,86,30.11,7.0,NNW,5.8,-,N/A,Snow,Light Snow,340,2012-12-09 22:04:00
4:24 PM,14.0,10.4,86,30.12,2.0,NNW,4.6,-,N/A,Snow,Light Snow,340,2012-12-09 22:24:00
4:44 PM,12.2,10.4,92,30.11,2.0,NNW,5.8,-,N/A,Snow,Light Snow,340,2012-12-09 22:44:00
5:04 PM,12.2,10.4,92,30.12,4.0,NNW,6.9,-,N/A,Snow,Light Snow,330,2012-12-09 23:04:00
5:25 PM,12.2,8.6,85,30.11,4.0,NNW,4.6,-,N/A,Snow,Light Snow,340,2012-12-09 23:25:00
5:44 PM,10.4,8.6,92,30.12,2.5,NNW,6.9,-,N/A,Snow,Light Snow,330,2012-12-09 23:44:00
6:04 PM,10.4,8.6,92,30.12,3.0,North,6.9,-,N/A,Snow,Light Snow,350,2012-12-10 00:04:00
6:24 PM,10.4,8.6,92,30.12,1.0,NNW,8.1,-,N/A,Snow,Light Snow,330,2012-12-10 00:24:00
6:44 PM,10.4,6.8,85,30.12,1.2,NNW,5.8,-,N/A,Snow,Light Snow,340,2012-12-10 00:44:00
7:04 PM,8.6,6.8,92,30.12,2.0,NNW,4.6,-,N/A,Snow,Light Snow,340,2012-12-10 01:04:00
7:24 PM,8.6,6.8,92,30.12,2.5,North,3.5,-,N/A,Snow,Light Snow,350,2012-12-10 01:24:00
8:04 PM,8.6,5.0,85,30.11,4.0,NNW,5.8,-,N/A,Snow,Light Snow,330,2012-12-10 02:04:00
8:24 PM,8.6,5.0,85,30.11,5.0,NNW,6.9,-,N/A,Snow,Light Snow,340,2012-12-10 02:24:00
8:44 PM,8.6,5.0,85,30.10,3.0,NNW,4.6,-,N/A,Snow,Light Snow,340,2012-12-10 02:44:00
9:04 PM,6.8,5.0,92,30.10,2.5,NNW,6.9,-,N/A,Snow,Light Snow,340,2012-12-10 03:04:00
9:24 PM,6.8,5.0,92,30.09,1.8,North,4.6,-,N/A,Snow,Light Snow,350,2012-12-10 03:24:00
9:44 PM,6.8,3.2,85,30.09,2.0,NNW,5.8,-,N/A,Snow,Light Snow,330,2012-12-10 03:44:00
10:04 PM,6.8,3.2,85,30.07,2.0,North,4.6,-,N/A,Snow,Light Snow,350,2012-12-10 04:04:00
10:24 PM,6.8,3.2,85,30.07,2.0,NNW,4.6,-,N/A,Snow,Light Snow,340,2012-12-10 04:24:00
10:44 PM,6.8,3.2,85,30.06,2.0,NNW,5.8,-,N/A,Snow,Light Snow,340,2012-12-10 04:44:00
11:04 PM,6.8,3.2,85,30.06,2.5,NNW,3.5,-,N/A,Snow,Light Snow,340,2012-12-10 05:04:00
11:24 PM,6.8,3.2,85,30.05,2.0,NNW,4.6,-,N/A,Snow,Light Snow,330,2012-12-10 05:24:00
11:44 PM,6.8,3.2,85,30.04,1.5,North,3.5,-,N/A,Snow,Light Snow,350,2012-12-10 05:44:00